Weather History for Leadville, CO

Change the Weather History Date:

Wednesday, November 21, 2012

  Actual Average Record
Temperature  
Mean Temperature 34 °F -  
Max Temperature 50 °F 34 °F 52 °F (1989)
Min Temperature 18 °F 10 °F -8 °F (1988)
Degree Days  
Heating Degree Days 31 43  
Month to date heating degree days 744 813  
Since 1 July heating degree days 2704 3002  
Cooling Degree Days 0 0  
Month to date cooling degree days 0 0  
Year to date cooling degree days 0 0  
Moisture  
Dew Point 2 °F    
Average Humidity 39    
Maximum Humidity 67    
Minimum Humidity 10    
Precipitation  
Precipitation 0.00 in 0.03 in 0.30 in (1983)
Month to date precipitation 0.16 0.56  
Year to date precipitation 10.30 11.50  
Sea Level Pressure  
Sea Level Pressure 30.01 in    
Wind  
Wind Speed 6 mph (North)    
Max Wind Speed 16 mph    
Max Gust Speed 23 mph    
Visibility 10 miles    
Events      
T = Trace of Precipitation, MM = Missing Value Source: NWS Daily Summary

Daily Weather History Graph

Daily Weather History Graph

Search for Another Location

Airport:

Trip Planner

Search our weather history database for the weather conditions in past years. The results will help you decide how hot, cold, wet, or windy it might be!

Date:

Astronomy

Nov. 21, 2012 Rise Set
Actual Time 6:55 AM MST 4:46 PM MST
Civil Twilight 6:26 AM MST 5:15 PM MST
Nautical Twilight 5:54 AM MST 5:48 PM MST
Astronomical Twilight 5:22 AM MST 6:20 PM MST
Moon 1:02 PM MST (11/21) 12:20 AM MST (11/21)
Length of Visible Light 10h 48m
Length of Day
9h 50m
Waxing Gibbous, 62% of the Moon is Illuminated
Nov 21
Waxing Gibbous
Nov 28
Full
Dec 6
Last Quarter
Dec 13
New
Dec 19
First Quarter

Hourly Weather History & Observations

Time (MST) Temp. Windchill Dew Point Humidity Pressure Visibility Wind Dir Wind Speed Gust Speed Precip Events Conditions
12:53 AM 19.9 °F 13.4 °F 10.0 °F 65% 30.10 in 10.0 mi NE 4.6 mph - N/A   Clear
1:53 AM 21.9 °F 13.4 °F 10.0 °F 60% 30.06 in 10.0 mi ENE 6.9 mph - N/A   Clear
2:53 AM 24.1 °F 19.7 °F 10.0 °F 55% 30.04 in 10.0 mi Variable 3.5 mph - N/A   Clear
3:53 AM 25.0 °F 19.3 °F 8.1 °F 49% 30.04 in 10.0 mi North 4.6 mph - N/A   Clear
4:53 AM 24.1 °F - 7.0 °F 48% 30.11 in 10.0 mi Calm Calm - N/A   Clear
5:53 AM 23.0 °F 13.9 °F 5.0 °F 46% 30.16 in 10.0 mi NE 8.1 mph - N/A   Clear
6:53 AM 32.0 °F 25.6 °F 3.0 °F 29% 30.10 in 10.0 mi NNE 6.9 mph - N/A   Clear
7:53 AM 28.9 °F - 3.9 °F 35% 30.12 in 10.0 mi Calm Calm - N/A   Clear
8:53 AM 33.1 °F - 9.0 °F 37% 30.13 in 10.0 mi Calm Calm - N/A   Clear
9:53 AM 43.0 °F 41.3 °F 1.9 °F 18% 30.01 in 10.0 mi North 3.5 mph - N/A   Clear
10:53 AM 46.9 °F - -2.0 °F 13% 30.01 in 10.0 mi Calm Calm - N/A   Clear
11:53 AM 48.0 °F - 1.0 °F 14% 29.96 in 10.0 mi Variable 4.6 mph - N/A   Clear
12:53 PM 50.0 °F - -4.0 °F 11% 29.95 in 10.0 mi WNW 11.5 mph 18.4 mph N/A   Clear
1:53 PM 48.9 °F - -5.1 °F 11% 29.91 in 10.0 mi West 15.0 mph - N/A   Clear
2:53 PM 48.0 °F - -5.1 °F 11% 29.91 in 10.0 mi WNW 13.8 mph - N/A   Clear
3:53 PM 45.0 °F 40.1 °F -5.1 °F 12% 29.93 in 10.0 mi West 9.2 mph - N/A   Clear
4:53 PM 39.0 °F 31.8 °F -2.9 °F 17% 29.99 in 10.0 mi WNW 11.5 mph - N/A   Clear
5:53 PM 33.1 °F 27.7 °F -2.9 °F 21% 30.04 in 10.0 mi Variable 5.8 mph - N/A   Clear
6:53 PM 30.9 °F - -0.0 °F 27% 29.99 in 10.0 mi Calm Calm - N/A   Clear
7:53 PM 30.9 °F 26.2 °F 1.0 °F 28% 30.01 in 10.0 mi North 4.6 mph - N/A   Clear
8:53 PM 32.0 °F 26.4 °F 1.9 °F 28% 29.96 in 10.0 mi NE 5.8 mph - N/A   Clear
9:53 PM 30.0 °F 23.2 °F 1.9 °F 30% 29.89 in 10.0 mi NE 6.9 mph - N/A   Clear
10:53 PM 30.0 °F 23.2 °F 3.0 °F 32% 29.86 in 10.0 mi NE 6.9 mph - N/A   Clear
11:53 PM 28.0 °F 21.7 °F 3.0 °F 34% 29.87 in 10.0 mi NNE 5.8 mph - N/A   Clear